Weather in Tabatinga

Brazil     4°13′49″S   69°56′15″W
temp.,
°C
wind,
m/s
gust,
m/s
humid.,
%
clouds,
%
prec.,
mm/h
press.,
hPa
HPBL,
m
25 february, thu
thu2501:00+22w009887 1.7 101023
04:00+22e1199100 1.1 101023
07:00+23sw0098100 3.2 101135
10:00+31wnw1163100 0.0 1013824
13:00+31nw1069100 1.1 10071047
16:00+29ne128098 1.9 1005303
19:00+24nne119363 2.6 100824
22:00+24nw119532 0.0 101024
26 february, fri
fri2601:00+23wsw119655 0.0 100723
04:00+23nnw1198100 0.3 100823
07:00+24n0097100 1.9 100968
10:00+23nnw1398100 1.8 1010136
13:00+32wnw125981 1.9 1007908
16:00+27sw258787 2.0 1005240
19:00+25e129494 3.4 100726
22:00+24e1195100 0.3 100924
27 february, sat
sat2701:00+24e0197100 0.5 100823
04:00+23sse0199100 1.3 100823
07:00+23se009899 1.4 100936
10:00+25wnw0195100 1.1 1011181
13:00+25nnw119598 1.3 1007146
16:00+28n127788 0.0 1004356
19:00+24n119490 0.0 100625
22:00+24e1495100 1.1 1009156
28 february, sun
sun2801:00+23ne1196100 1.1 100770
04:00+23ene1199100 0.0 100635
07:00+24n1492100 0.0 1009242
10:00+27n1477100 0.1 1010692
13:00+29n2481100 2.4 1006810
16:00+28nnw138697 3.6 1003613
19:00+25wsw009799 4.6 100624
22:00+24nw1199100 7.4 100737
1 march, mon
mon101:00+23sse1199100 19.3 100645
04:00+23ssw11100100 20.1 100554
07:00+23wsw14100100 26.2 1008257
10:00+23w2599100 3.3 1010331
13:00+23wsw2498100 5.4 1008341
16:00+24w1395100 0.0 1005338
19:00+22s1199100 0.0 100723
22:00+22se0198100 0.0 100823